DW4870 Weather Reports


time (UTC)temp
F
wind
direction
speed
knots
gust
knots
rain 1hr
in
rain 24hr
in
rain mn
in
humidity
%
barometer
mb
20260503212045 60 0.0 0.0 0.00 0.00 0.00 61 1019.8
20260503211033 61 0.0 0.0 0.00 0.00 0.00 61 1019.8
20260503210023 61 0.0 0.0 0.00 0.00 0.00 61 1019.6
20260503205019 61 0.0 0.0 0.00 0.00 0.00 61 1019.4
20260503204017 61 0.0 0.0 0.00 0.00 0.00 61 1019.3
20260503203037 62 0.0 0.0 0.00 0.00 0.00 60 1019.2
20260503202032 62 0.0 0.0 0.00 0.00 0.00 60 1019.2
20260503201026 63 0.0 0.0 0.00 0.00 0.00 59 1019.3
20260503200109 63 0.0 0.0 0.00 0.00 0.00 59 1019.4
20260503195038 63 0.0 0.0 0.00 0.00 0.00 58 1019.3
20260503194034 64 0.0 0.0 0.00 0.00 0.00 58 1019.1
20260503193027 64 0.0 0.0 0.00 0.00 0.00 58 1019.0
20260503192022 64 0.0 0.0 0.00 0.00 0.00 57 1018.8
20260503191020 64 0.0 0.0 0.00 0.00 0.00 57 1018.7
20260503190046 65 0.0 0.0 0.00 0.00 0.00 56 1018.6
20260503185038 65 0.0 0.0 0.00 0.00 0.00 55 1018.5
20260503184031 65 90 0.9 0.9 0.00 0.00 0.00 54 1018.3
20260503183029 66 45 0.9 1.7 0.00 0.00 0.00 53 1018.3
20260503182020 66 0.0 0.0 0.00 0.00 0.00 51 1018.2
20260503181047 67 0.0 0.0 0.00 0.00 0.00 50 1018.2
20260503180043 68 0.0 0.0 0.00 0.00 0.00 49 1018.2
20260503175101 68 0.0 0.0 0.00 0.00 0.00 48 1018.1
20260503174053 69 0.0 0.0 0.00 0.00 0.00 48 1018.2
20260503173709 69 0.0 0.0 0.00 0.00 0.00 47 1018.1
20260503172028 70 0.0 0.0 0.00 0.00 0.00 46 1017.9
20260503171500 70 0.0 0.0 0.00 0.00 0.00 46 1017.8
20260503150521 0 0.0 0.0 0.00 0.00 0.00 1018.5
20260503130545 0 0.0 0.0 0.00 0.00 0.00 1019.8
20260503110548 0 0.0 0.0 0.00 0.00 0.00 1020.4
20260503081522 0 0.0 0.0 0.00 0.00 0.00 1021.8
20260503080545 64 0.0 0.0 0.00 0.00 0.00 59 1021.9
20260503072546 0 0.0 0.0 0.00 0.00 0.00 61 1022.2
20260503071518 0 0.0 0.0 0.00 0.00 0.00 1022.3
20260503070534 0 0.0 0.0 0.00 0.00 0.00 1022.2
20260503054617 52 0.0 0.0 0.00 0.00 0.00 71 1022.0
20260503053535 52 0.0 0.0 0.00 0.00 0.00 71 1022.0
20260503052614 52 0.0 0.0 0.00 0.00 0.00 71 1022.0
20260503051535 49 0.0 0.0 0.00 0.00 0.00 73 1022.0
20260503050520 48 0.0 0.0 0.00 0.00 0.00 73 1021.9
20260503045534 0 0.0 0.0 0.00 0.00 0.00 1021.9
20260503044550 0 0.0 0.0 0.00 0.00 0.00 1021.8
20260503043607 0 0.0 0.0 0.00 0.00 0.00 1021.9
20260503042544 0 0.0 0.0 0.00 0.00 0.00 1021.8
20260503041544 47 0.0 0.0 0.00 0.00 0.00 70 1021.7
20260503040520 47 0.0 0.0 0.00 0.00 0.00 70 1021.7
20260503035522 47 0.0 0.0 0.00 0.00 0.00 70 1021.6
20260503034543 0 0.0 0.0 0.00 0.00 0.00 1021.6
20260503033540 0 0.0 0.0 0.00 0.00 0.00 1021.6
20260503032542 0 0.0 0.0 0.00 0.00 0.00 1021.6
20260503031558 0 0.0 0.0 0.00 0.00 0.00 1021.6
20260503030614 49 0.0 0.0 0.00 0.00 0.00 1021.4
20260503025527 49 0.0 0.0 0.00 0.00 0.00 1021.6
20260503024625 0 0.0 0.0 0.00 0.00 0.00 1021.5
20260503023541 0 0.0 0.0 0.00 0.00 0.00 1021.5
20260503022537 51 0.0 0.0 0.00 0.00 0.00 66 1021.6
20260503021602 0 0.0 0.0 0.00 0.00 0.00 66 1021.6
20260503020556 0 0.0 0.0 0.00 0.00 0.00 1021.6
20260503015519 0 0.0 0.0 0.00 0.00 0.00 1021.6
20260503014557 0 0.0 0.0 0.00 0.00 0.00 1021.6
20260503013548 0 0.0 0.0 0.00 0.00 0.00 1021.6
20260503012540 51 0.0 0.0 0.00 0.00 0.00 63 1021.8
20260503011541 51 0.0 0.0 0.00 0.00 0.00 63 1021.8
20260503010526 52 0.0 0.0 0.00 0.00 0.00 63 1021.9
20260503005612 0 0.0 0.0 0.00 0.00 0.00 1021.9
20260503004542 0 0.0 0.0 0.00 0.00 0.00 1022.0
20260503003602 0 0.0 0.0 0.00 0.00 0.00 1022.0
20260503002625 0 0.0 0.0 0.00 0.00 0.00 1022.1
20260503001528 53 0.0 0.0 0.00 0.00 0.00 62 1022.1
20260503000525 53 0.0 0.0 0.00 0.00 0.00 62 1022.1
20260503000017 52 0.0 0.0 0.00 0.00 0.00 62 1022.0
20260502235028 52 0.0 0.0 0.00 0.00 0.00 1022.1
20260502234110 53 0.0 0.0 0.00 0.00 0.00 61 1022.2
20260502233035 53 0.0 0.0 0.00 0.00 0.00 61 1022.3
20260502232051 0 0.0 0.0 0.00 0.00 0.00 60 1022.3
20260502231048 53 0.0 0.0 0.00 0.00 0.00 58 1022.3
20260502230042 53 0.0 0.0 0.00 0.00 0.00 58 1022.3
20260502225043 53 0.0 0.0 0.00 0.00 0.00 58 1022.3
20260502224108 0 0.0 0.0 0.00 0.00 0.00 58 1022.3
20260502223026 0 0.0 0.0 0.00 0.00 0.00 58 1022.3
20260502222021 0 0.0 0.0 0.00 0.00 0.00 1022.3
20260502221113 55 0.0 0.0 0.00 0.00 0.00 55 1022.3
20260502220022 56 0.0 0.0 0.00 0.00 0.00 1022.3
20260502215055 0 0.0 0.0 0.00 0.00 0.00 1022.3
20260502214118 0 0.0 0.0 0.00 0.00 0.00 1022.2
20260502213037 0 0.0 0.0 0.00 0.00 0.00 1022.0